Location: Key Biscayne
(25.6930°N, 80.1630°W)
Time: 05:23:40
(UTC-04:00)

CZ-2D R/B - Visible Passes

Search period start: 29 March 2015 00:00
Search period end: 08 April 2015 00:00
Orbit: 532 x 548 km, 97.6° (Epoch: 28 March)

Date Brightness Start Highest point End Pass type
(mag) Time Alt. Az. Time Alt. Az. Time Alt. Az.
29 Mar 3.4 21:09:01 32° S 21:10:42 71° W 21:14:37 10° NNW visible
30 Mar 3.2 21:01:30 30° SSE 21:03:20 88° E 21:07:17 10° N visible
31 Mar 3.2 20:53:59 27° SSE 20:55:59 69° ENE 20:59:53 10° N visible
01 Apr 3.4 20:46:28 23° SE 20:48:36 52° ENE 20:52:26 10° N visible
02 Apr 3.7 20:38:56 20° SE 20:41:14 41° ENE 20:44:57 10° N visible
03 Apr 4.0 20:31:24 16° SE 20:33:51 32° ENE 20:37:24 10° NNE visible
03 Apr 6.4 22:07:26 10° WSW 22:08:32 11° W 22:09:22 10° W visible
04 Apr 4.4 20:23:50 13° SE 20:26:28 25° ENE 20:29:46 10° NNE visible
04 Apr 6.2 21:59:20 11° WSW 22:01:03 14° W 22:03:00 10° WNW visible
05 Apr 4.7 20:16:17 10° ESE 20:19:04 20° ENE 20:22:04 10° NNE visible
05 Apr 5.9 21:51:47 14° SW 21:53:34 17° W 21:56:09 10° NW visible
06 Apr 4.9 20:09:15 10° ESE 20:11:40 16° ENE 20:14:14 10° NNE visible
06 Apr 5.6 21:44:13 16° SW 21:46:04 22° W 21:49:06 10° NW visible
07 Apr 5.2 20:02:30 10° E 20:04:16 13° ENE 20:06:14 10° NE visible
07 Apr 5.2 21:36:38 19° SW 21:38:36 27° W 21:41:57 10° NW visible
